Beaufort, NC

8:26 PM EST on December 13, 2019 (GMT -0500)
Smith

Weather History for KMRH - October, 2019

Change the Weather History Date:

Thursday, October 31, 2019

  Actual Average Record
Temperature  
Mean Temperature 78 °F -  
Max Temperature 82 °F 70 °F 83 °F (1971)
Min Temperature 75 °F 50 °F 32 °F (1968)
Cooling Degree Days 14    
Growing Degree Days 28 (Base 50)    
Moisture  
Dew Point 72 °F    
Average Humidity 85    
Maximum Humidity 94    
Minimum Humidity 71    
Precipitation  
Precipitation 0.00 in - - ()
Sea Level Pressure  
Sea Level Pressure 30.01 in    
Wind  
Wind Speed 11 mph (South)    
Max Wind Speed 20 mph    
Max Gust Speed 31 mph    
Visibility 10 miles    
Events      
Averages and records for this station are not official NWS values.
T = Trace of Precipitation, MM = Missing Value Source: NWS Daily Summary

Daily Weather History Graph

Daily Weather History Graph

Search for Another Location

Airport or City:

Astronomy

Oct. 31, 2019 Rise Set
Actual Time 7:26 AM EDT 6:13 PM EDT
Civil Twilight 7:00 AM EDT 6:39 PM EDT
Nautical Twilight 6:30 AM EDT 7:09 PM EDT
Astronomical Twilight 6:00 AM EDT 7:39 PM EDT
Moon 11:05 AM EDT (10/31) 9:15 PM EDT (10/31)
Length of Visible Light 11h 39m
Length of Day
10h 47m
Waxing Crescent, 15% of the Moon is Illuminated
Oct 31
Waxing Crescent
Nov 4
First Quarter
Nov 12
Full
Nov 19
Last Quarter
Nov 26
New

Hourly Weather History & Observations

Time (EDT) Temp. Heat Index Dew Point Humidity Pressure Visibility Wind Dir Wind Speed Gust Speed Precip Events Conditions
12:58 AM 75.0 °F - 71.1 °F 87% 30.10 in 10.0 mi South 8.1 mph - N/A   Clear
1:58 AM 75.0 °F - 71.1 °F 87% 30.07 in 10.0 mi South 9.2 mph - N/A   Clear
2:58 AM 75.0 °F - 71.1 °F 87% 30.06 in 10.0 mi South 9.2 mph - N/A   Clear
3:58 AM 75.0 °F - 72.0 °F 90% 30.04 in 10.0 mi South 10.4 mph - N/A   Partly Cloudy
4:58 AM 75.0 °F - 72.0 °F 90% 30.04 in 10.0 mi SSE 9.2 mph - N/A   Clear
5:28 AM 75.9 °F - 72.0 °F 87% 30.04 in 10.0 mi South 10.4 mph - N/A   Mostly Cloudy
5:47 AM 75.0 °F - 72.0 °F 90% 30.04 in 10.0 mi South 8.1 mph - N/A   Mostly Cloudy
5:58 AM 75.0 °F - 72.0 °F 90% 30.04 in 10.0 mi South 8.1 mph - N/A   Scattered Clouds
6:26 AM 75.0 °F - 72.0 °F 90% 30.04 in 10.0 mi South 6.9 mph - N/A   Overcast
6:43 AM 75.0 °F - 72.0 °F 90% 30.04 in 10.0 mi South 6.9 mph - N/A   Mostly Cloudy
6:58 AM 75.0 °F - 73.0 °F 94% 30.05 in 10.0 mi SSW 6.9 mph - 0.00 in   Overcast
7:27 AM 75.0 °F - 72.0 °F 90% 30.05 in 10.0 mi South 6.9 mph - N/A   Mostly Cloudy
7:58 AM 75.0 °F - 73.0 °F 94% 30.05 in 9.0 mi South 6.9 mph - N/A   Scattered Clouds
8:58 AM 77.0 °F - 73.0 °F 88% 30.06 in 10.0 mi South 8.1 mph - N/A   Clear
9:58 AM 78.1 °F - 72.0 °F 81% 30.05 in 10.0 mi South 12.7 mph - N/A   Clear
10:58 AM 79.0 °F - 73.0 °F 82% 30.06 in 10.0 mi SSW 12.7 mph - N/A   Mostly Cloudy
11:58 AM 81.0 °F 85.8 °F 73.0 °F 77% 30.04 in 10.0 mi SSW 13.8 mph - N/A   Clear
12:58 PM 81.0 °F 85.8 °F 73.0 °F 77% 30.01 in 10.0 mi SSW 16.1 mph - N/A   Clear
1:58 PM 82.0 °F 86.7 °F 72.0 °F 71% 29.97 in 10.0 mi South 15.0 mph - N/A   Partly Cloudy
2:58 PM 81.0 °F 85.2 °F 72.0 °F 74% 29.95 in 10.0 mi South 16.1 mph - N/A   Clear
3:58 PM 81.0 °F 85.8 °F 73.0 °F 77% 29.94 in 10.0 mi South 15.0 mph - N/A   Clear
4:58 PM 79.0 °F - 72.0 °F 79% 29.92 in 10.0 mi South 16.1 mph 25.3 mph N/A   Clear
5:58 PM 78.1 °F - 73.0 °F 84% 29.91 in 10.0 mi South 18.4 mph - N/A   Overcast
6:58 PM 78.1 °F - 73.0 °F 84% 29.92 in 10.0 mi South 18.4 mph - N/A   Mostly Cloudy
8:58 PM 77.0 °F - 73.0 °F 88% 29.92 in 10.0 mi SSW 15.0 mph 25.3 mph N/A   Overcast
9:58 PM 77.0 °F - 73.0 °F 88% 29.90 in 10.0 mi South 18.4 mph 31.1 mph N/A   Clear
11:58 PM 77.0 °F - 73.9 °F 90% 29.88 in 10.0 mi South 19.6 mph - N/A   Clear